Weather reports worldwide

Advertisment
Salla, Finland (2849): temperature & dewpoint: 08.12.2019 04:00:00 - 14.12.2019 04:00:00 (EET)Salla, Finland (2849): wind speed & gusts: 08.12.2019 04:00:00 - 14.12.2019 04:00:00 (EET)Salla, Finland (2849): wind direction: 08.12.2019 04:00:00 - 14.12.2019 04:00:00 (EET)Salla, Finland (2849): reduced air pressure: 08.12.2019 04:00:00 - 14.12.2019 04:00:00 (EET)Salla, Finland (2849): visibility: 08.12.2019 04:00:00 - 14.12.2019 04:00:00 (EET)Salla, Finland (2849): precipitation: 08.12.2019 04:00:00 - 14.12.2019 04:00:00 (EET)
Date & Time tt [°C] td [°C] ff [km/h] ff [kn] fx [km/h] fx [kn] dd ppp [hPa] vv [km] rr [mm]
14.12.2019 04:00:00 -0,1 -0,1 11 6 22 12 S 1003,8 20 0,0
14.12.2019 03:00:00 -0,2 -0,2 7 4 17 9 SSE 1003,6 17 0,0
14.12.2019 02:00:00 -0,2 -0,2 7 4 23 12 SSE 1003,5 15 0,0
14.12.2019 01:00:00 -0,2 -0,2 12 7 26 14 SSE 1003,2 14 0,0
14.12.2019 00:00:00 -0,2 -0,2 13 7 29 16 SSE 1002,8 12 0,0
13.12.2019 23:00:00 -0,1 -0,4 14 8 32 17 S 1002,3 20 0,0
13.12.2019 22:00:00 -0,1 -0,4 17 9 31 17 S 1001,9 20 0,0
13.12.2019 21:00:00 -0,1 -0,6 16 9 30 16 S 1001,4 20 0,0
13.12.2019 20:00:00 -0,3 -0,5 16 8 26 14 S 1001,0 20 0,0
13.12.2019 19:00:00 -0,5 -0,7 14 8 26 14 SSE 1000,6 20 0,0
13.12.2019 18:00:00 -0,8 -0,8 12 7 23 12 SSE 1000,2 20 0,1
13.12.2019 17:00:00 -0,8 -0,8 13 7 22 12 SSE 1000,1 11 0,0
13.12.2019 16:00:00 -0,9 -0,9 9 5 23 13 SSE 999,6 7 0,0
13.12.2019 15:00:00 -0,8 -1,3 12 6 23 12 S 999,3 15 0,0
13.12.2019 14:00:00 -1,2 -1,4 11 6 25 13 SSE 998,7 14 0,0
13.12.2019 13:00:00 -1,3 -1,7 12 6 26 14 SSE 998,8 12 0,0
13.12.2019 12:00:00 -1,6 -2,0 14 8 29 16 SSE 998,6 20 0,0
13.12.2019 11:00:00 -1,8 -2,0 15 8 28 15 SSE 998,3 15 0,1
13.12.2019 10:00:00 -1,6 -1,6 13 7 33 18 SSE 998,0 2,3 0,0
13.12.2019 09:00:00 -1,5 -1,5 16 9 28 15 SSE 997,6 15 0,3
13.12.2019 08:00:00 -1,7 -1,7 10 6 22 12 SSE 997,4 3,4 0,2
13.12.2019 07:00:00 -1,6 -1,6 11 6 29 16 SE 997,3 2,6 0,0
13.12.2019 06:00:00 -1,3 -2,0 14 8 29 15 SSE 997,5 20 0,0
13.12.2019 05:00:00 -1,3 -1,8 14 8 30 16 SSE 997,6 20 0,0
13.12.2019 04:00:00 -1,1 -1,5 12 6 27 14 SSE 997,6 20 0,1
13.12.2019 03:00:00 -0,8 -0,8 13 7 29 16 SSE 997,7 4,4 0,1
13.12.2019 02:00:00 -0,4 -0,4 16 9 32 17 SSE 998,0 3,2 0,2
13.12.2019 01:00:00 -0,2 -0,2 13 7 31 17 SE 998,2 5 0,0
13.12.2019 00:00:00 -0,1 -0,1 6 4 21 11 SE 998,3 6 0,0
12.12.2019 23:00:00 0,0 0,0 9 5 17 9 SSE 998,6 4,3 0,1
12.12.2019 22:00:00 0,3 0,3 7 4 22 12 SSE 998,9 20 0,0
12.12.2019 21:00:00 0,5 0,3 15 8 28 15 SSE 999,1 20 0,0
12.12.2019 20:00:00 0,7 0,7 16 8 31 17 SSE 999,1 20 0,0
12.12.2019 19:00:00 0,9 0,9 13 7 26 14 SSE 999,3 20 0,0
12.12.2019 18:00:00 0,8 0,8 13 7 25 13 SSE 999,4 20 0,0
12.12.2019 17:00:00 0,8 0,8 13 7 24 13 SSE 999,4 20 0,0
12.12.2019 16:00:00 0,6 0,6 9 5 23 13 SE 999,6 20 0,1
12.12.2019 15:00:00 0,5 0,5 9 5 23 12 SSE 999,7 7 0,0
12.12.2019 14:00:00 0,8 0,7 12 6 28 15 S 999,7 15 0,3
12.12.2019 13:00:00 1,3 0,3 16 9 31 17 S 999,7 20 0,1
12.12.2019 12:00:00 1,0 0,5 18 10 40 22 S 999,4 17 0,1
12.12.2019 11:00:00 1,3 0,0 22 12 41 22 S 999,7 20 0,1
12.12.2019 10:00:00 1,1 -0,2 19 11 38 21 S 999,5 20 0,0
12.12.2019 09:00:00 1,2 -0,2 16 9 35 19 S 999,2 20 0,0
12.12.2019 08:00:00 1,1 0,1 15 8 31 17 S 999,2 20 0,0
12.12.2019 07:00:00 1,0 0,3 16 9 32 18 S 999,0 20 0,0
12.12.2019 06:00:00 1,0 0,5 15 8 32 18 S 999,0 20 0,0
12.12.2019 05:00:00 1,0 0,8 13 7 33 18 S 998,9 20 0,0
12.12.2019 04:00:00 1,3 0,6 17 9 42 23 S 998,8 20 0,0
12.12.2019 03:00:00 1,2 0,6 18 10 40 21 SSW 998,0 20 0,0
12.12.2019 02:00:00 1,1 0,7 16 9 46 25 S 997,2 20 0,0
12.12.2019 01:00:00 1,0 0,9 21 11 46 25 SSW 996,6 20 0,0
12.12.2019 00:00:00 0,8 0,8 22 12 45 25 SSW 995,4 20 0,0
11.12.2019 23:00:00 0,5 0,5 20 11 48 26 S 994,4 20 0,0
11.12.2019 22:00:00 -1,2 -1,2 22 12 42 23 S 993,8 5 0,0
11.12.2019 21:00:00 -2,5 -2,5 20 11 42 23 SSE 993,2 3,0 0,5
11.12.2019 20:00:00 -3,1 -3,1 23 12 45 24 SSE 993,5 1,6 0,2
11.12.2019 19:00:00 -4,0 -4,0 24 13 50 27 SE 994,3 1,2 0,7
11.12.2019 18:00:00 -4,4 -4,4 25 13 48 26 SE 995,4 2,4 1,0
11.12.2019 17:00:00 -4,8 -4,8 26 14 54 29 SE 996,3 1,1 0,9
11.12.2019 16:00:00 -5,2 -5,2 25 14 47 25 SE 997,5 0,9 0,8
11.12.2019 15:00:00 -6,4 -6,4 24 13 49 26 SE 999,0 2,0 0,5
11.12.2019 14:00:00 -7,3 -7,4 24 13 48 26 SE 1000,4 1,3 0,6
11.12.2019 13:00:00 -7,9 -8,1 21 12 41 22 SE 1002,0 1,5 0,3
11.12.2019 12:00:00 -9,0 -9,1 17 9 37 20 SE 1004,0 1,1 0,4
11.12.2019 11:00:00 -10,1 -10,5 16 9 27 15 SE 1005,5 1,4 0,3
11.12.2019 10:00:00 -11,4 -11,9 14 8 26 14 SE 1006,9 12 0,0
11.12.2019 09:00:00 -11,8 -12,3 9 5 22 12 SE 1007,2 20 0,0
11.12.2019 08:00:00 -13,4 -14,1 15 8 24 13 SE 1008,3 20 0,0
11.12.2019 07:00:00 -13,7 -14,4 10 6 22 12 SSE 1008,9 20 0,0
11.12.2019 06:00:00 -14,7 -15,6 10 5 29 15 SE 1009,9 16 0,0
11.12.2019 05:00:00 -15,1 -15,9 14 7 26 14 SE 1010,1 11 0,0
11.12.2019 04:00:00 -17,8 -18,8 16 9 22 12 SSE 1010,9 20 0,0
11.12.2019 03:00:00 -20,9 -22,5 11 6 19 10 SE 1011,5 20 0,0
11.12.2019 02:00:00 -20,5 -21,7 14 8 18 10 SSE 1011,6 20 0,0
11.12.2019 01:00:00 -26,8 -29,1 9 5 13 7 SE 1012,1 20 0,0
11.12.2019 00:00:00 -26,2 -28,6 7 4 9 5 SSE 1011,6 20 0,0
10.12.2019 23:00:00 -25,9 -28,2 2 1 10 5 SSE 1011,4 20 0,0
10.12.2019 22:00:00 -25,3 -27,2 2 1 12 7 NNE 1010,8 20 0,0
10.12.2019 21:00:00 -25,0 -27,0 9 5 12 6 ESE 1010,6 20 0,0
10.12.2019 20:00:00 -24,1 -25,9 2 1 10 5 ENE 1009,8 20 0,0
10.12.2019 19:00:00 -22,5 -24,3 7 4 16 8 ENE 1009,1 20 0,0
10.12.2019 18:00:00 -22,1 -24,0 7 4 19 11 W 1008,3 20 0,0
10.12.2019 17:00:00 -22,1 -23,7 9 5 19 10 W 1007,5 20 0,0
10.12.2019 16:00:00 -21,4 -22,7 9 5 20 11 WSW 1006,5 20 0,0
10.12.2019 15:00:00 -21,5 -23,2 8 5 17 9 W 1005,7 20 0,0
10.12.2019 14:00:00 -20,4 -22,0 4 2 21 11 WSW 1004,8 20 0,0
10.12.2019 13:00:00 -19,0 -19,3 9 5 18 10 W 1003,7 20 0,0
10.12.2019 12:00:00 -21,4 -23,2 11 6 22 12 W 1003,3 20 0,0
10.12.2019 11:00:00 -20,8 -22,4 10 6 24 13 WSW 1002,3 20 0,0
10.12.2019 10:00:00 -19,9 -21,3 6 3 13 7 W 1001,0 20 0,0
10.12.2019 09:00:00 -17,5 -19,1 7 4 14 8 W 999,6 20 0,0
10.12.2019 08:00:00 -13,6 -14,5 5 3 16 9 W 998,1 20 0,0
10.12.2019 07:00:00 -10,8 -11,4 9 5 19 10 W 996,3 20 0,0
10.12.2019 06:00:00 -9,9 -10,8 6 4 19 10 W 995,1 20 0,0
10.12.2019 05:00:00 -9,1 -10,3 10 5 19 10 W 993,6 20 0,0
10.12.2019 04:00:00 -8,1 -9,3 10 5 24 13 W 991,7 20 0,0
10.12.2019 03:00:00 -7,1 -8,2 11 6 19 11 W 990,3 20 0,0
10.12.2019 02:00:00 -5,5 -6,0 11 6 26 14 WNW 988,5 20 0,0
10.12.2019 01:00:00 -4,8 -4,8 16 8 25 13 NW 986,9 5 0,3
10.12.2019 00:00:00 -4,5 -4,5 15 8 28 15 NW 985,3 1,3 0,2
09.12.2019 23:00:00 -5,0 -5,0 14 8 24 13 WNW 983,8 6 0,3
09.12.2019 22:00:00 -5,4 -5,4 11 6 20 11 WNW 982,5 1,7 0,4
09.12.2019 21:00:00 -6,4 -6,4 11 6 18 10 WNW 981,6 4,8 0,2
09.12.2019 20:00:00 -7,0 -7,0 10 5 16 9 NW 980,4 3,5 0,2
09.12.2019 19:00:00 -7,4 -7,4 8 5 18 10 NW 979,3 4,6 0,0
09.12.2019 18:00:00 -7,7 -7,9 12 6 17 9 NW 978,6 9 0,0
09.12.2019 17:00:00 -7,5 -7,7 11 6 23 12 NW 977,5 4,7 0,2
09.12.2019 16:00:00 -7,0 -7,1 13 7 29 16 N 976,7 1,1 0,1
09.12.2019 15:00:00 -6,8 -6,9 13 7 23 12 NNW 976,1 10 0,1
09.12.2019 14:00:00 -6,7 -6,9 17 9 29 16 N 975,5 2,5 0,2
09.12.2019 13:00:00 -6,6 -6,7 13 7 26 14 N 975,2 2,2 0,2
09.12.2019 12:00:00 -6,6 -6,7 14 7 27 15 NNE 975,3 4,0 0,0
09.12.2019 11:00:00 -6,7 -6,8 12 7 22 12 NNE 975,6 20 0,0
09.12.2019 10:00:00 -7,2 -7,2 11 6 18 10 NNE 976,0 20 0,0
09.12.2019 09:00:00 -7,9 -7,9 5 3 19 11 N 976,3 20 0,0
09.12.2019 08:00:00 -7,1 -7,1 11 6 19 10 NE 976,5 20 0,0
09.12.2019 07:00:00 -7,6 -7,6 9 5 16 9 NE 976,7 20 0,0
09.12.2019 06:00:00 -7,2 -7,2 8 4 15 8 NE 977,1 20 0,0
09.12.2019 05:00:00 -7,9 -7,9 6 4 11 6 E 978,1 20 0,0
09.12.2019 04:00:00 -8,9 -9,2 2 1 11 6 NNE 978,5 20 0,0
09.12.2019 03:00:00 -8,9 -9,0 6 3 11 6 E 979,0 20 0,0
09.12.2019 02:00:00 -10,2 -10,5 8 4 10 5 SSE 979,5 20 0,0
09.12.2019 01:00:00 -10,0 -10,0 0 0 5 3 N 979,5 0,4 0,0
09.12.2019 00:00:00 -9,4 -9,6 2 1 4 2 NNW 980,1 20 0,0
08.12.2019 23:00:00 -8,6 -8,6 2 1 3 1 ENE 979,7 1,1 0,0
08.12.2019 22:00:00 -8,0 -8,0 2 1 4 2 NNW 979,4 20 0,0
08.12.2019 21:00:00 -6,9 -6,9 3 2 4 2 N 979,2 20 0,0
08.12.2019 20:00:00 -7,0 -7,0 3 2 5 3 NNW 979,1 20 0,0
08.12.2019 19:00:00 -5,6 -5,6 0 0 8 4 N 979,0 20 0,0
08.12.2019 18:00:00 -5,1 -5,1 4 2 7 4 N 978,7 20 0,0
08.12.2019 17:00:00 -4,9 -4,9 5 3 8 4 SSW 978,4 20 0,0
08.12.2019 16:00:00 -4,7 -4,7 5 3 7 4 S 978,3 11 0,0
08.12.2019 15:00:00 -4,5 -4,5 0 0 4 2 N 978,2 10 0,0
08.12.2019 14:00:00 -4,3 -4,3 0 0 6 4 N 978,2 8 0,0
08.12.2019 13:00:00 -4,1 -4,1 4 2 9 5 N 977,8 18 0,0
08.12.2019 12:00:00 -3,9 -4,2 5 3 10 6 WNW 977,8 15 0,0
08.12.2019 11:00:00 -3,7 -4,0 6 3 10 6 NW 977,9 7 0,0
08.12.2019 10:00:00 -3,6 -3,8 3 2 9 5 WNW 977,8 20 0,0
08.12.2019 09:00:00 -3,5 -3,6 3 1 8 4 NW 977,9 20 0,0
08.12.2019 08:00:00 -3,5 -3,5 2 1 5 3 WSW 978,0 20 0,0
08.12.2019 07:00:00 -3,3 -3,3 0 0 5 3 N 978,3 11 0,0
08.12.2019 06:00:00 -3,3 -3,3 3 2 6 3 NW 978,5 10 0,0
08.12.2019 05:00:00 -3,2 -3,2 2 1 6 3 WSW 978,8 20 0,0
08.12.2019 04:00:00 -3,0 -3,0 0 0 6 4 N 979,0 11 0,0

tt = temperature
td = dewpoint
ff = wind speed
fx = gusts
dd = wind direction
ppp = reduced air pressure
vv = visibility
rr = precipitation

Next stations